CST,Max TemperatureF,Mean TemperatureF,Min TemperatureF,Max Dew PointF,MeanDew PointF,Min DewpointF,Max Humidity, Mean Humidity, Min Humidity, Max Sea Level PressureIn, Mean Sea Level PressureIn, Min Sea Level PressureIn, Max VisibilityMiles, Mean VisibilityMiles, Min VisibilityMiles, Max Wind SpeedMPH, Mean Wind SpeedMPH, Max Gust SpeedMPH,PrecipitationIn, CloudCover, Events, WindDirDegrees
2012-11-1,66,54,42,45,37,28,93,69,32,30.10,30.02,29.98,10,9,7,6,1,,0.00,0,,324
2012-11-2,73,58,44,52,46,43,100,80,38,30.03,29.98,29.95,10,10,7,7,2,,0.00,1,,190
2012-11-3,82,65,48,64,54,48,100,83,48,30.12,30.01,29.93,10,9,1,17,4,23,0.00,2,Rain-Thunderstorm,263
2012-11-4,57,49,41,46,41,34,100,80,41,30.20,30.14,30.10,10,9,6,14,8,,0.00,1,,6
2012-11-5,51,44,37,46,41,37,100,92,58,30.14,30.07,29.97,10,10,7,10,2,,0.00,5,Rain,73
2012-11-6,51,45,39,46,44,39,100,98,76,30.08,30.03,30.00,10,8,3,10,4,,0.01,6,,18
2012-11-7,53,44,35,45,39,36,100,90,51,30.19,30.07,29.99,10,7,0,16,4,23,0.01,2,,279
2012-11-8,57,44,32,43,37,32,100,85,44,30.29,30.20,30.16,10,9,5,5,0,,0.00,0,,200
2012-11-9,69,54,39,66,42,39,100,75,43,30.26,30.17,30.12,10,10,7,14,5,18,0.00,1,,170
2012-11-10,71,58,46,55,49,45,100,78,41,30.25,30.16,30.11,10,10,7,15,9,17,0.00,0,,167
2012-11-11,75,66,53,63,57,54,100,84,50,30.15,30.08,29.98,10,8,1,23,13,34,0.56,6,Rain-Thunderstorm,170
2012-11-12,51,42,32,52,40,28,100,90,50,30.47,30.31,30.09,10,8,2,18,9,24,0.43,4,,330
2012-11-13,51,40,30,34,30,27,100,77,38,30.53,30.45,30.40,10,10,8,12,2,,0.00,0,,33
2012-11-14,48,40,33,36,32,28,100,84,54,30.42,30.36,30.07,10,10,7,12,3,,0.00,1,,25
2012-11-15,55,42,30,37,34,30,100,88,47,30.38,30.32,30.29,10,9,5,12,1,,0.00,1,,6
2012-11-16,57,44,32,36,33,32,100,80,38,30.42,30.37,30.34,10,9,6,12,2,,0.00,0,,26
2012-11-17,60,46,32,34,32,30,100,72,34,30.46,30.40,30.36,10,10,7,8,1,,0.00,0,,38
2012-11-18,64,48,33,37,35,32,100,72,32,30.42,30.35,30.31,10,9,5,7,1,,0.00,0,,138
2012-11-19,64,50,35,46,40,36,100,77,37,30.34,30.27,30.19,10,10,7,6,0,,0.00,2,,225
2012-11-20,69,58,46,52,48,45,100,80,43,30.20,30.15,30.09,10,9,5,9,2,,0.00,1,,245
2012-11-21,64,53,42,52,46,37,100,91,52,30.27,30.20,30.14,10,8,3,12,5,,0.00,0,,2
2012-11-22,69,53,37,48,43,37,100,82,40,30.24,30.17,30.12,10,8,2,14,2,,0.00,1,,193
2012-11-23,57,47,37,54,41,28,100,74,38,30.33,30.23,30.14,10,8,3,17,8,25,0.24,3,,308
2012-11-24,44,36,28,30,25,21,100,72,39,30.38,30.28,30.17,10,9,5,13,6,,0.00,1,,354
2012-11-25,57,42,28,32,29,28,100,71,36,30.17,30.09,30.01,10,10,8,13,4,,0.00,0,,182
2012-11-26,53,48,42,54,41,30,100,84,61,30.19,30.10,30.04,10,7,1,18,7,25,0.00,6,Rain,147
2012-11-27,44,38,32,43,36,32,100,96,66,30.39,30.31,30.21,10,8,2,16,11,24,0.01,4,,11
2012-11-28,50,39,28,37,31,28,100,87,47,30.50,30.41,30.37,10,7,0,6,0,,0.00,0,,40
2012-11-29,59,46,32,34,31,27,100,72,31,30.39,30.32,30.25,10,10,7,9,2,,0.00,1,,165
2012-11-30,62,50,39,50,42,34,100,86,59,30.30,30.24,30.20,10,9,7,12,6,,0.00,0,,173